Weather Roundup
Issued by NWS Chicago, IL

Home | Current Version | Previous Version | Text Only | Print | Product List | Glossary On
Versions: 1 2 3 4 5 6 7 8 9 10 11 12 13 14 15 16 17 18 19 20 21 22 23 24 25 26 27 28 29 30 31 32 33 34 35 36 37 38 39 40 41 42 43 44 45 46 47 48 49 50
000
NZUS59 KLOT 121910
HRRLOT

CHICAGO AREA WEATHER ROUNDUP
NATIONAL WEATHER SERVICE CHICAGO/ROMEOVILLE IL
200 PM CDT SAT JUL 12 2014

NOTE: "FAIR" INDICATES FEW OR NO CLOUDS BELOW 12,000 FEET WITH NO
SIGNIFICANT WEATHER AND/OR OBSTRUCTIONS TO VISIBILITY.

* THESE STATIONS ARE NOT UNDER NWS QUALITY CONTROL. THEY ALSO MAY NOT
  REPORT WEATHER SUCH AS PRECIPITATION OR FOG.

ILZ005-006-012>014-019>023-122000-
NORTHEAST ILLINOIS

CITY           SKY/WX    TMP DP  RH WIND       PRES   REMARKS
OHARE          CLOUDY    78  68  71 SW21G28   30.00F HX  80
MIDWAY         CLOUDY    79  71  76 SW22G28   30.00F HX  82
AURORA         CLOUDY    77  69  76 S10       30.03F
LANSING*       CLOUDY    77  70  79 SW16      30.03R
JOLIET*        CLOUDY    75  69  81 SW9       30.03F
WAUKEGAN       CLOUDY    76  69  79 SW17G31   29.97F
DUPAGE AIRPORT CLOUDY    77  69  76 SW20G26   30.02F
WHEELING       PTSUNNY   79  70  74 SW10G26   30.01F HX  82
KANKAKEE*      CLOUDY    75  71  88 S9G16     30.05S
MORRIS*        CLOUDY    76  71  85 S8        30.02F
LEWIS AIRPORT* CLOUDY    75  69  81 SW12G18   30.03F
NORTHERLY IS     N/A     77  68  73 W13         N/A
$$

WIZ051-052-058>065-066-070>072-122000-
SOUTHEAST WISCONSIN

CITY           SKY/WX    TMP DP  RH WIND       PRES   REMARKS
MILWAUKEE      CLOUDY    77  68  73 W10       29.99R
KENOSHA*       CLOUDY    74  70  87 SW14G22   29.99S
RACINE*        CLOUDY    76  70  82 W12G17    30.00S
BURLINGTON     CLOUDY    72  69  89 SW17      30.00F FOG
WAUKESHA       CLOUDY    73  68  83 SW7       30.00F
WEST BEND      CLOUDY    77  64  65 S8        29.99F
$$

INZ001>003-010>013-019-020-122000-
NORTHWEST INDIANA

CITY           SKY/WX    TMP DP  RH WIND       PRES   REMARKS
GARY*          PTSUNNY   79  72  78 S9        30.02F HX  82
MICHIGAN CITY* NOT AVBL
RENSSELAER*    NOT AVBL
VALPARAISO     CLOUDY    73  70  90 S9        30.03F
$$

LMZ740>746-122000-
SOUTHERN LAKE MICHIGAN

STATION/POSITION TIME  SKY/WX   TEMP WIND        PRES    VSBY
                                AIR  DIR/SP/G
                 (UTC)          (F)  (DEG/KT/KT) (MB)    (MI)
HARRISON CRIB    1900            75  220/ 18/ 25   N/A
BURNHAM HARBOR   1900            77  230/ 11/ 17   N/A
CALUMET HARBOR   1900            75  210/ 14/ 20 1016.8F
BURNS HARBOR     1800            72  190/ 16/ 20 1016.6F
MICHIGAN CITY    1900            72  180/ 15/ 21   N/A
$$

ABBREVIATIONS USED IN REMARKS
   TC - TEMPERATURE IN CELSIUS
  WCI - WIND CHILL INDEX
   HX - HEAT INDEX
  VSB - VISIBILITY
$$



USA.gov is the U.S. government's official web portal to all federal, state and local government web resources and services.